FENGYUN 1C DEB, 30037

Orbit data source: Space-Track

FENGYUN 1C DEB, 30037 is space debris in SSO originally from a launch on Mon, 10 May 1999 UTC launched from the Taiyaun Space Center, China (TSC). Fengyun 1C debris stems from the Chinese weather satellite Fengyun-1C, which was intentionally destroyed by a Chinese anti-satellite missile in 2007. This event dramatically increased the amount of space debris, with thousands of trackable fragments posing hazards to satellites and human spaceflight. The Fengyun 1C debris cloud has become a focal point in discussions about space sustainability and the need for international regulations to prevent the creation of new debris.

Loading next visibility...
Identifier
30037, 1999-025NN
Orbit
SSO
Country
Flag of CNCN / PRC
Related business
Manufacturer
Unknown
Mission
Spacecraft
Bus & Motor
Unknown
Mass
Unknown
Launch date (UTC)
1999-05-10 (27 years ago)
Launch vehicle
Unknown
Launch site
Taiyaun Space Center, China (TSC)
Object type
Payload
Rocket body
Debris
Shape & HBR
Unknown shape, 0.1 m
Radar Cross Section
Small (<0.1 m²)

Expand to show TLE details & history
Last TLE update: 8 hours ago

TLE from 8 hours ago
0 FENGYUN 1C DEB
1 30037U 99025NN  26146.18721050  .00000354  00000-0  12164-3 0  9990
2 30037  98.4032 122.2596 0171605 285.4009  90.3612 14.34344954 11459
Epoch: 2026-05-26T04:29Z
TLE epoch observation values (Epoch: 2026-05-26T04:29:34.987Z)
Latitude
17.52097°
Longitude
168.44075°
Altitude
782.479 km
Speed
7.463 km/s
True Right ascension
07h 58m 24s
True Declination
17° 25' 22"
Sunlit
Object was in daylight at epoch
Visualization orbit readout
Latitude
Unknown
Longitude
Unknown
Altitude
Unknown
Speed
Unknown
Apparent Right ascension
Unknown
Apparent Declination
Unknown
Sunlit
N/A
Visualization observer readout
Local Sidereal Time
21:30:33
Azimuth
Unknown
Elevation
Unknown
Doppler factor
Unknown
Orbital elements
Apogee altitude
897.108 km
Perigee altitude
651.627 km
Semi-major axis
7,152.505 km
Eccentricity
0.01716
Inclination
98.4032°
RAAN
122.2596°
Arg. of periapsis
285.4009°
True anomaly
92.32696°
Mean anomaly
90.3612°
Eccentric anomaly
91.34415°
Mean motion
3.58803 °/min
Orbital period
100.33 mins
BSTAR
0.00012164
Loading maneuver chart data...
Computing Atmospheric mass density...
Loading historical data...
Loading historical data...
Loading historical data...
Loading historical data...
Loading historical data...
Loading historical data...
Loading historical data...

Documentation

Showing up to 5 results
|